| time (UTC) | temp F | wind direction | speed MPH | gust MPH | rain 1hr in | rain 24hr in | rain mn in | humidity % | barometer mb |
| 20260902171505 | 88 | 1 | 0.0 | 1.0 | 0.00 | 0.00 | 0.00 | 27 | 1013.9 |
| 20260902171004 | 88 | 1 | 0.0 | 1.0 | 0.00 | 0.00 | 0.00 | 27 | 1013.8 |
| 20260902170503 | 88 | 1 | 0.0 | 2.0 | 0.00 | 0.00 | 0.00 | 27 | 1013.9 |
| 20260902170005 | 88 | 30 | 0.0 | 2.0 | 0.00 | 0.00 | 0.00 | 27 | 1013.6 |
| 20260902165504 | 88 | 43 | 0.0 | 2.0 | 0.00 | 0.00 | 0.00 | 27 | 1013.8 |
| 20260902165004 | 89 | 33 | 0.0 | 2.0 | 0.00 | 0.00 | 0.00 | 26 | 1013.6 |
| 20260902164505 | 89 | 20 | 1.0 | 3.0 | 0.00 | 0.00 | 0.00 | 26 | 1013.9 |
| 20260902164004 | 90 | 22 | 1.0 | 3.0 | 0.00 | 0.00 | 0.00 | 25 | 1013.7 |
| 20260902163504 | 90 | 17 | 1.0 | 4.0 | 0.00 | 0.00 | 0.00 | 25 | 1013.9 |
| 20260902163005 | 90 | 25 | 1.0 | 4.0 | 0.00 | 0.00 | 0.00 | 24 | 1013.9 |
| 20260902162504 | 90 | 34 | 2.0 | 5.0 | 0.00 | 0.00 | 0.00 | 24 | 1014.1 |
| 20260902162004 | 90 | 40 | 2.0 | 5.0 | 0.00 | 0.00 | 0.00 | 24 | 1014.0 |
| 20260902161504 | 91 | 35 | 1.0 | 5.0 | 0.00 | 0.00 | 0.00 | 24 | 1014.0 |
| 20260902161004 | 91 | 19 | 2.0 | 6.0 | 0.00 | 0.00 | 0.00 | 23 | 1013.9 |
| 20260902160504 | 91 | 5 | 3.0 | 9.0 | 0.00 | 0.00 | 0.00 | 23 | 1014.0 |
| 20260902155504 | 92 | 9 | 3.0 | 9.0 | 0.00 | 0.00 | 0.00 | 22 | 1014.1 |
| 20260902154505 | 92 | 9 | 4.0 | 9.0 | 0.00 | 0.00 | 0.00 | 22 | 1014.2 |
| 20260902154003 | 92 | 3 | 4.0 | 9.0 | 0.00 | 0.00 | 0.00 | 22 | 1014.1 |
| 20260902153504 | 92 | 345 | 3.0 | 8.0 | 0.00 | 0.00 | 0.00 | 22 | 1014.1 |
| 20260902153004 | 92 | 3 | 4.0 | 9.0 | 0.00 | 0.00 | 0.00 | 22 | 1013.9 |
| 20260902152504 | 93 | 20 | 4.0 | 9.0 | 0.00 | 0.00 | 0.00 | 21 | 1014.0 |
| 20260902151504 | 93 | 66 | 4.0 | 8.0 | 0.00 | 0.00 | 0.00 | 21 | 1013.6 |
| 20260902151004 | 93 | 44 | 5.0 | 12.0 | 0.00 | 0.00 | 0.00 | 21 | 1013.6 |
| 20260902150503 | 93 | 12 | 5.0 | 12.0 | 0.00 | 0.00 | 0.00 | 20 | 1013.6 |
| 20260902150004 | 93 | 14 | 4.0 | 9.0 | 0.00 | 0.00 | 0.00 | 20 | 1013.7 |
| 20260902145504 | 93 | 64 | 4.0 | 11.0 | 0.00 | 0.00 | 0.00 | 20 | 1013.7 |
| 20260902145004 | 93 | 94 | 4.0 | 11.0 | 0.00 | 0.00 | 0.00 | 20 | 1013.8 |
| 20260902144004 | 93 | 110 | 6.0 | 14.0 | 0.00 | 0.00 | 0.00 | 20 | 1013.8 |
| 20260902143503 | 93 | 97 | 7.0 | 13.0 | 0.00 | 0.00 | 0.00 | 20 | 1013.8 |
| 20260902142504 | 93 | 96 | 5.0 | 11.0 | 0.00 | 0.00 | 0.00 | 19 | 1013.9 |
| 20260902142003 | 94 | 94 | 6.0 | 11.0 | 0.00 | 0.00 | 0.00 | 19 | 1014.0 |
| 20260902141004 | 94 | 80 | 5.0 | 12.0 | 0.00 | 0.00 | 0.00 | 19 | 1014.0 |
| 20260902140504 | 94 | 81 | 5.0 | 12.0 | 0.00 | 0.00 | 0.00 | 18 | 1014.0 |
| 20260902140004 | 94 | 88 | 4.0 | 10.0 | 0.00 | 0.00 | 0.00 | 18 | 1014.1 |
| 20260902135503 | 95 | 96 | 5.0 | 9.0 | 0.00 | 0.00 | 0.00 | 18 | 1014.3 |
| 20260902135009 | 95 | 76 | 4.0 | 9.0 | 0.00 | 0.00 | 0.00 | 18 | 1014.3 |
| 20260902132004 | 95 | 29 | 4.0 | 12.0 | 0.00 | 0.00 | 0.00 | 18 | 1014.5 |
| 20260902131504 | 95 | 42 | 6.0 | 12.0 | 0.00 | 0.00 | 0.00 | 18 | 1014.7 |
| 20260902131003 | 95 | 46 | 6.0 | 13.0 | 0.00 | 0.00 | 0.00 | 17 | 1014.8 |
| 20260902130504 | 95 | 32 | 7.0 | 13.0 | 0.00 | 0.00 | 0.00 | 19 | 1014.7 |
| 20260902130005 | 94 | 22 | 6.0 | 13.0 | 0.00 | 0.00 | 0.00 | 18 | 1014.9 |
| 20260902125504 | 94 | 14 | 6.0 | 14.0 | 0.00 | 0.00 | 0.00 | 18 | 1014.8 |
| 20260902125004 | 94 | 11 | 7.0 | 14.0 | 0.00 | 0.00 | 0.00 | 18 | 1014.7 |
| 20260902124504 | 94 | 342 | 7.0 | 13.0 | 0.00 | 0.00 | 0.00 | 18 | 1014.8 |
| 20260902124004 | 95 | 338 | 8.0 | 15.0 | 0.00 | 0.00 | 0.00 | 18 | 1015.0 |
| 20260902123503 | 95 | 355 | 8.0 | 15.0 | 0.00 | 0.00 | 0.00 | 18 | 1014.9 |
| 20260902122504 | 95 | 33 | 6.0 | 14.0 | 0.00 | 0.00 | 0.00 | 19 | 1014.8 |
| 20260902122003 | 95 | 7 | 7.0 | 14.0 | 0.00 | 0.00 | 0.00 | 18 | 1015.0 |
| 20260902121505 | 95 | 331 | 6.0 | 15.0 | 0.00 | 0.00 | 0.00 | 18 | 1015.0 |
| 20260902121004 | 95 | 11 | 5.0 | 15.0 | 0.00 | 0.00 | 0.00 | 18 | 1014.9 |
| 20260902120503 | 95 | 10 | 6.0 | 14.0 | 0.00 | 0.00 | 0.00 | 19 | 1015.0 |
| 20260902120004 | 95 | 346 | 6.0 | 14.0 | 0.00 | 0.00 | 0.00 | 19 | 1015.0 |
| 20260902115503 | 95 | 334 | 7.0 | 15.0 | 0.00 | 0.00 | 0.00 | 18 | 1015.1 |
| 20260902115004 | 95 | 344 | 6.0 | 15.0 | 0.00 | 0.00 | 0.00 | 19 | 1015.0 |
| 20260902114505 | 95 | 21 | 4.0 | 11.0 | 0.00 | 0.00 | 0.00 | 20 | 1015.1 |
| 20260902114004 | 94 | 71 | 6.0 | 12.0 | 0.00 | 0.00 | 0.00 | 19 | 1015.2 |
| 20260902112504 | 95 | 51 | 6.0 | 13.0 | 0.00 | 0.00 | 0.00 | 18 | 1015.3 |
| 20260902111004 | 94 | 89 | 5.0 | 12.0 | 0.00 | 0.00 | 0.00 | 21 | 1015.5 |
| 20260902110503 | 94 | 45 | 5.0 | 13.0 | 0.00 | 0.00 | 0.00 | 21 | 1015.6 |
| 20260902110007 | 94 | 12 | 6.0 | 13.0 | 0.00 | 0.00 | 0.00 | 20 | 1015.7 |
| 20260902105504 | 94 | 17 | 7.0 | 16.0 | 0.00 | 0.00 | 0.00 | 21 | 1015.5 |
| 20260902105003 | 94 | 17 | 8.0 | 16.0 | 0.00 | 0.00 | 0.00 | 20 | 1015.5 |
| 20260902104504 | 94 | 30 | 6.0 | 17.0 | 0.00 | 0.00 | 0.00 | 22 | 1015.4 |
| 20260902104003 | 94 | 49 | 5.0 | 17.0 | 0.00 | 0.00 | 0.00 | 22 | 1015.6 |
| 20260902103504 | 94 | 40 | 6.0 | 13.0 | 0.00 | 0.00 | 0.00 | 22 | 1015.6 |
| 20260902103005 | 94 | 349 | 6.0 | 16.0 | 0.00 | 0.00 | 0.00 | 23 | 1015.7 |
| 20260902102504 | 94 | 322 | 6.0 | 16.0 | 0.00 | 0.00 | 0.00 | 23 | 1015.7 |
| 20260902101505 | 93 | 1 | 7.0 | 14.0 | 0.00 | 0.00 | 0.00 | 24 | 1015.8 |
| 20260902100504 | 93 | 8 | 7.0 | 16.0 | 0.00 | 0.00 | 0.00 | 24 | 1015.8 |
| 20260902100005 | 93 | 10 | 6.0 | 16.0 | 0.00 | 0.00 | 0.00 | 24 | 1015.8 |
| 20260902095504 | 93 | 40 | 7.0 | 13.0 | 0.00 | 0.00 | 0.00 | 25 | 1015.8 |
| 20260902095004 | 93 | 22 | 7.0 | 13.0 | 0.00 | 0.00 | 0.00 | 25 | 1015.9 |
| 20260902094504 | 93 | 353 | 6.0 | 14.0 | 0.00 | 0.00 | 0.00 | 25 | 1016.0 |
| 20260902094004 | 92 | 348 | 6.0 | 14.0 | 0.00 | 0.00 | 0.00 | 26 | 1016.0 |
| 20260902093504 | 92 | 355 | 6.0 | 14.0 | 0.00 | 0.00 | 0.00 | 26 | 1016.0 |
| 20260902093004 | 92 | 352 | 6.0 | 13.0 | 0.00 | 0.00 | 0.00 | 27 | 1016.0 |
| 20260902092504 | 92 | 36 | 6.0 | 13.0 | 0.00 | 0.00 | 0.00 | 27 | 1016.0 |
| 20260902092003 | 92 | 44 | 6.0 | 14.0 | 0.00 | 0.00 | 0.00 | 27 | 1016.1 |
| 20260902091004 | 92 | 354 | 7.0 | 14.0 | 0.00 | 0.00 | 0.00 | 27 | 1016.1 |
| 20260902090503 | 92 | 6 | 6.0 | 14.0 | 0.00 | 0.00 | 0.00 | 26 | 1015.9 |
| 20260902090005 | 92 | 355 | 6.0 | 14.0 | 0.00 | 0.00 | 0.00 | 27 | 1016.1 |
| 20260902085503 | 92 | 354 | 6.0 | 14.0 | 0.00 | 0.00 | 0.00 | 27 | 1015.9 |
| 20260902085003 | 92 | 4 | 6.0 | 13.0 | 0.00 | 0.00 | 0.00 | 27 | 1016.0 |
| 20260902084004 | 91 | 8 | 5.0 | 13.0 | 0.00 | 0.00 | 0.00 | 29 | 1016.0 |
| 20260902083504 | 90 | 23 | 4.0 | 13.0 | 0.00 | 0.00 | 0.00 | 29 | 1016.1 |
| 20260902083004 | 90 | 332 | 4.0 | 13.0 | 0.00 | 0.00 | 0.00 | 30 | 1016.1 |
| 20260902082503 | 90 | 341 | 6.0 | 13.0 | 0.00 | 0.00 | 0.00 | 30 | 1016.2 |
| 20260902082003 | 90 | 335 | 5.0 | 13.0 | 0.00 | 0.00 | 0.00 | 30 | 1016.2 |
| 20260902081504 | 90 | 346 | 4.0 | 13.0 | 0.00 | 0.00 | 0.00 | 31 | 1016.2 |
| 20260902081004 | 89 | 12 | 4.0 | 13.0 | 0.00 | 0.00 | 0.00 | 32 | 1016.3 |
| 20260902080504 | 89 | 21 | 5.0 | 13.0 | 0.00 | 0.00 | 0.00 | 31 | 1016.3 |
| 20260902075503 | 88 | 26 | 7.0 | 12.0 | 0.00 | 0.00 | 0.00 | 32 | 1016.3 |
| 20260902075003 | 88 | 5 | 6.0 | 10.0 | 0.00 | 0.00 | 0.00 | 35 | 1016.2 |
| 20260902074504 | 88 | 12 | 4.0 | 10.0 | 0.00 | 0.00 | 0.00 | 35 | 1016.3 |
| 20260902074003 | 87 | 19 | 5.0 | 12.0 | 0.00 | 0.00 | 0.00 | 36 | 1016.2 |
| 20260902073503 | 87 | 359 | 6.0 | 12.0 | 0.00 | 0.00 | 0.00 | 37 | 1016.2 |
| 20260902073004 | 87 | 352 | 5.0 | 12.0 | 0.00 | 0.00 | 0.00 | 37 | 1016.3 |
| 20260902072504 | 86 | 11 | 5.0 | 10.0 | 0.00 | 0.00 | 0.00 | 39 | 1016.1 |
| 20260902072004 | 86 | 15 | 5.0 | 10.0 | 0.00 | 0.00 | 0.00 | 40 | 1016.2 |
| 20260902071003 | 85 | 354 | 4.0 | 10.0 | 0.00 | 0.00 | 0.00 | 42 | 1016.2 |
| 20260902070504 | 84 | 342 | 2.0 | 8.0 | 0.00 | 0.00 | 0.00 | 44 | 1016.2 |
| 20260902070006 | 83 | 236 | 2.0 | 4.0 | 0.00 | 0.00 | 0.00 | 46 | 1016.0 |
| 20260902065503 | 83 | 217 | 2.0 | 4.0 | 0.00 | 0.00 | 0.00 | 46 | 1016.2 |
| 20260902065003 | 82 | 211 | 1.0 | 4.0 | 0.00 | 0.00 | 0.00 | 46 | 1016.1 |
| 20260902064504 | 82 | 212 | 2.0 | 5.0 | 0.00 | 0.00 | 0.00 | 47 | 1016.1 |
| 20260902064004 | 81 | 206 | 3.0 | 5.0 | 0.00 | 0.00 | 0.00 | 47 | 1016.2 |
| 20260902063504 | 81 | 198 | 2.0 | 4.0 | 0.00 | 0.00 | 0.00 | 47 | 1016.2 |
| 20260902063005 | 80 | 199 | 2.0 | 4.0 | 0.00 | 0.00 | 0.00 | 47 | 1016.0 |
| 20260902062504 | 80 | 213 | 1.0 | 4.0 | 0.00 | 0.00 | 0.00 | 48 | 1016.2 |
| 20260902062004 | 79 | 223 | 2.0 | 4.0 | 0.00 | 0.00 | 0.00 | 48 | 1016.2 |
| 20260902061003 | 79 | 218 | 2.0 | 4.0 | 0.00 | 0.00 | 0.00 | 49 | 1016.2 |
| 20260902060503 | 78 | 214 | 2.0 | 4.0 | 0.00 | 0.00 | 0.00 | 49 | 1016.2 |
| 20260902060004 | 78 | 216 | 2.0 | 4.0 | 0.00 | 0.00 | 0.00 | 50 | 1016.2 |
| 20260902055503 | 78 | 226 | 1.0 | 4.0 | 0.00 | 0.00 | 0.00 | 50 | 1016.3 |
| 20260902055004 | 77 | 226 | 1.0 | 4.0 | 0.00 | 0.00 | 0.00 | 51 | 1016.3 |
| 20260902054504 | 77 | 222 | 1.0 | 4.0 | 0.00 | 0.00 | 0.00 | 52 | 1016.3 |
| 20260902054004 | 77 | 225 | 0.0 | 3.0 | 0.00 | 0.00 | 0.00 | 52 | 1016.2 |
| 20260902053004 | 75 | 250 | 0.0 | 2.0 | 0.00 | 0.00 | 0.00 | 54 | 1016.0 |
| 20260902052503 | 74 | 252 | 0.0 | 2.0 | 0.00 | 0.00 | 0.00 | 55 | 1016.3 |
| 20260902052004 | 74 | 256 | 0.0 | 2.0 | 0.00 | 0.00 | 0.00 | 56 | 1016.2 |
| 20260902051504 | 73 | 258 | 0.0 | 2.0 | 0.00 | 0.00 | 0.00 | 56 | 1016.2 |
| 20260902051004 | 72 | 228 | 0.0 | 3.0 | 0.00 | 0.00 | 0.00 | 56 | 1016.2 |
| 20260902050503 | 72 | 230 | 0.0 | 3.0 | 0.00 | 0.00 | 0.00 | 56 | 1016.2 |
| 20260902050007 | 72 | 233 | 0.0 | 3.0 | 0.00 | 0.00 | 0.00 | 56 | 1016.3 |
| 20260902045503 | 71 | 226 | 1.0 | 3.0 | 0.00 | 0.00 | 0.00 | 56 | 1016.2 |
| 20260902044504 | 71 | 196 | 1.0 | 4.0 | 0.00 | 0.00 | 0.00 | 57 | 1016.0 |
| 20260902043503 | 71 | 235 | 1.0 | 3.0 | 0.00 | 0.00 | 0.00 | 57 | 1016.0 |
| 20260902043005 | 70 | 241 | 1.0 | 3.0 | 0.00 | 0.00 | 0.00 | 57 | 1015.9 |
| 20260902042504 | 70 | 245 | 0.0 | 3.0 | 0.00 | 0.00 | 0.00 | 57 | 1016.0 |
| 20260902042003 | 70 | 237 | 0.0 | 3.0 | 0.00 | 0.00 | 0.00 | 57 | 1016.1 |
| 20260902041504 | 70 | 209 | 0.0 | 3.0 | 0.00 | 0.00 | 0.00 | 57 | 1016.0 |
| 20260902041003 | 70 | 195 | 0.0 | 2.0 | 0.00 | 0.00 | 0.00 | 57 | 1016.1 |
| 20260902040503 | 70 | 187 | 0.0 | 2.0 | 0.00 | 0.00 | 0.00 | 57 | 1016.1 |
| 20260902035504 | 70 | 211 | 0.0 | 3.0 | 0.00 | 0.00 | 0.00 | 56 | 1016.0 |
| 20260902034504 | 70 | 195 | 0.0 | 3.0 | 0.00 | 0.00 | 0.00 | 56 | 1015.8 |
| 20260902034003 | 70 | 219 | 0.0 | 3.0 | 0.00 | 0.00 | 0.00 | 56 | 1015.9 |
| 20260902033504 | 70 | 225 | 0.0 | 3.0 | 0.00 | 0.00 | 0.00 | 55 | 1015.7 |
| 20260902033005 | 70 | 211 | 1.0 | 4.0 | 0.00 | 0.00 | 0.00 | 55 | 1015.8 |
| 20260902032504 | 70 | 216 | 2.0 | 4.0 | 0.00 | 0.00 | 0.00 | 55 | 1015.7 |
| 20260902032003 | 71 | 223 | 2.0 | 4.0 | 0.00 | 0.00 | 0.00 | 54 | 1015.6 |
| 20260902031504 | 71 | 219 | 2.0 | 4.0 | 0.00 | 0.00 | 0.00 | 54 | 1015.6 |
| 20260902030004 | 71 | 222 | 2.0 | 6.0 | 0.00 | 0.00 | 0.00 | 55 | 1015.6 |
| 20260902025504 | 71 | 200 | 1.0 | 5.0 | 0.00 | 0.00 | 0.00 | 55 | 1015.5 |
| 20260902024504 | 71 | 229 | 0.0 | 3.0 | 0.00 | 0.00 | 0.00 | 55 | 1015.4 |
| 20260902024004 | 71 | 252 | 0.0 | 3.0 | 0.00 | 0.00 | 0.00 | 55 | 1015.5 |
| 20260902023004 | 72 | 232 | 0.0 | 3.0 | 0.00 | 0.00 | 0.00 | 54 | 1015.5 |
| 20260902022503 | 72 | 234 | 0.0 | 2.0 | 0.00 | 0.00 | 0.00 | 54 | 1015.4 |
| 20260902022003 | 72 | 228 | 0.0 | 2.0 | 0.00 | 0.00 | 0.00 | 54 | 1015.5 |
| 20260902021003 | 72 | 222 | 0.0 | 3.0 | 0.00 | 0.00 | 0.00 | 54 | 1015.4 |
| 20260902020004 | 72 | 246 | 0.0 | 3.0 | 0.00 | 0.00 | 0.00 | 53 | 1015.3 |
| 20260902015503 | 72 | 215 | 1.0 | 3.0 | 0.00 | 0.00 | 0.00 | 53 | 1015.3 |
| 20260902015004 | 72 | 199 | 1.0 | 4.0 | 0.00 | 0.00 | 0.00 | 53 | 1015.4 |
| 20260902014504 | 72 | 203 | 0.0 | 4.0 | 0.00 | 0.00 | 0.00 | 53 | 1015.4 |
| 20260902014003 | 72 | 246 | 0.0 | 4.0 | 0.00 | 0.00 | 0.00 | 53 | 1015.3 |
| 20260902013004 | 72 | 283 | 0.0 | 3.0 | 0.00 | 0.00 | 0.00 | 53 | 1015.2 |
| 20260902012504 | 73 | 252 | 0.0 | 3.0 | 0.00 | 0.00 | 0.00 | 53 | 1015.2 |
| 20260902012003 | 73 | 223 | 0.0 | 3.0 | 0.00 | 0.00 | 0.00 | 52 | 1015.4 |
| 20260902011504 | 73 | 212 | 0.0 | 3.0 | 0.00 | 0.00 | 0.00 | 52 | 1015.4 |
| 20260902011004 | 73 | 155 | 0.0 | 4.0 | 0.00 | 0.00 | 0.00 | 52 | 1015.3 |
| 20260902010504 | 73 | 187 | 1.0 | 4.0 | 0.00 | 0.00 | 0.00 | 52 | 1015.3 |
| 20260902010004 | 73 | 230 | 2.0 | 4.0 | 0.00 | 0.00 | 0.00 | 52 | 1015.2 |
| 20260902005503 | 73 | 263 | 2.0 | 4.0 | 0.00 | 0.00 | 0.00 | 51 | 1015.1 |
| 20260902005003 | 73 | 263 | 2.0 | 5.0 | 0.00 | 0.00 | 0.00 | 51 | 1015.1 |
| 20260902004504 | 73 | 256 | 2.0 | 6.0 | 0.00 | 0.00 | 0.00 | 50 | 1015.0 |
| 20260902003503 | 74 | 225 | 2.0 | 6.0 | 0.00 | 0.00 | 0.00 | 50 | 1015.0 |
| 20260902003004 | 74 | 228 | 2.0 | 6.0 | 0.00 | 0.00 | 0.00 | 50 | 1014.9 |
| 20260902002504 | 74 | 248 | 1.0 | 5.0 | 0.00 | 0.00 | 0.00 | 51 | 1015.1 |
| 20260902001004 | 74 | 265 | 1.0 | 4.0 | 0.00 | 0.00 | 0.00 | 50 | 1015.0 |
| 20260902000004 | 74 | 217 | 1.0 | 4.0 | 0.00 | 0.00 | 0.00 | 50 | 1015.0 |
| 20260901235503 | 74 | 255 | 1.0 | 4.0 | 0.00 | 0.00 | 0.00 | 50 | 1014.9 |
| 20260901235004 | 74 | 254 | 1.0 | 4.0 | 0.00 | 0.00 | 0.00 | 50 | 1014.9 |
| 20260901234504 | 74 | 248 | 1.0 | 4.0 | 0.00 | 0.00 | 0.00 | 50 | 1014.9 |
| 20260901233004 | 74 | 230 | 1.0 | 4.0 | 0.00 | 0.00 | 0.00 | 50 | 1014.9 |
| 20260901232503 | 74 | 236 | 0.0 | 3.0 | 0.00 | 0.00 | 0.00 | 49 | 1015.0 |
| 20260901232004 | 74 | 236 | 0.0 | 3.0 | 0.00 | 0.00 | 0.00 | 49 | 1015.0 |
| 20260901231504 | 74 | 194 | 0.0 | 4.0 | 0.00 | 0.00 | 0.00 | 48 | 1015.2 |
| 20260901231003 | 74 | 205 | 1.0 | 4.0 | 0.00 | 0.00 | 0.00 | 48 | 1015.0 |
| 20260901230504 | 75 | 234 | 1.0 | 4.0 | 0.00 | 0.00 | 0.00 | 48 | 1015.1 |
| 20260901230005 | 75 | 253 | 1.0 | 3.0 | 0.00 | 0.00 | 0.00 | 48 | 1015.1 |
| 20260901225504 | 75 | 231 | 1.0 | 4.0 | 0.00 | 0.00 | 0.00 | 47 | 1015.0 |
| 20260901225003 | 75 | 232 | 1.0 | 4.0 | 0.00 | 0.00 | 0.00 | 47 | 1015.1 |
| 20260901224504 | 75 | 246 | 0.0 | 3.0 | 0.00 | 0.00 | 0.00 | 47 | 1015.0 |
| 20260901224004 | 75 | 245 | 0.0 | 3.0 | 0.00 | 0.00 | 0.00 | 47 | 1015.0 |
| 20260901223504 | 75 | 245 | 0.0 | 3.0 | 0.00 | 0.00 | 0.00 | 47 | 1014.9 |
| 20260901223005 | 76 | 226 | 0.0 | 3.0 | 0.00 | 0.00 | 0.00 | 47 | 1015.2 |
| 20260901222004 | 75 | 188 | 0.0 | 2.0 | 0.00 | 0.00 | 0.00 | 47 | 1015.1 |
| 20260901221504 | 76 | 0 | 0.0 | 0.0 | 0.00 | 0.00 | 0.00 | 46 | 1015.1 |
| 20260901221003 | 76 | 0 | 0.0 | 0.0 | 0.00 | 0.00 | 0.00 | 46 | 1015.2 |
| 20260901220504 | 76 | 0 | 0.0 | 0.0 | 0.00 | 0.00 | 0.00 | 46 | 1015.1 |
| 20260901220004 | 76 | 225 | 0.0 | 2.0 | 0.00 | 0.00 | 0.00 | 46 | 1015.2 |
| 20260901215503 | 76 | 209 | 0.0 | 3.0 | 0.00 | 0.00 | 0.00 | 46 | 1015.2 |
| 20260901215003 | 76 | 198 | 0.0 | 3.0 | 0.00 | 0.00 | 0.00 | 46 | 1015.0 |
| 20260901214504 | 76 | 135 | 0.0 | 2.0 | 0.00 | 0.00 | 0.00 | 46 | 1015.0 |
| 20260901214004 | 76 | 135 | 0.0 | 2.0 | 0.00 | 0.00 | 0.00 | 46 | 1015.0 |
| 20260901213503 | 76 | 135 | 0.0 | 2.0 | 0.00 | 0.00 | 0.00 | 46 | 1014.8 |
| 20260901213004 | 76 | 0 | 0.0 | 0.0 | 0.00 | 0.00 | 0.00 | 45 | 1014.8 |
| 20260901212503 | 77 | 181 | 0.0 | 2.0 | 0.00 | 0.00 | 0.00 | 45 | 1015.0 |
| 20260901211504 | 77 | 220 | 0.0 | 3.0 | 0.00 | 0.00 | 0.00 | 45 | 1014.9 |
| 20260901211003 | 77 | 203 | 0.0 | 3.0 | 0.00 | 0.00 | 0.00 | 45 | 1014.9 |
| 20260901205504 | 78 | 253 | 1.0 | 4.0 | 0.00 | 0.00 | 0.00 | 44 | 1015.0 |
| 20260901205004 | 78 | 250 | 1.0 | 4.0 | 0.00 | 0.00 | 0.00 | 44 | 1014.9 |
| 20260901204504 | 78 | 242 | 1.0 | 4.0 | 0.00 | 0.00 | 0.00 | 44 | 1014.8 |
| 20260901204004 | 78 | 243 | 1.0 | 4.0 | 0.00 | 0.00 | 0.00 | 44 | 1015.0 |
| 20260901203504 | 78 | 236 | 1.0 | 4.0 | 0.00 | 0.00 | 0.00 | 44 | 1014.8 |
| 20260901203004 | 78 | 235 | 1.0 | 4.0 | 0.00 | 0.00 | 0.00 | 44 | 1014.8 |
| 20260901202003 | 78 | 230 | 1.0 | 4.0 | 0.00 | 0.00 | 0.00 | 43 | 1014.8 |
| 20260901201504 | 78 | 221 | 1.0 | 4.0 | 0.00 | 0.00 | 0.00 | 43 | 1014.8 |
| 20260901200504 | 79 | 216 | 1.0 | 4.0 | 0.00 | 0.00 | 0.00 | 42 | 1014.8 |
| 20260901195504 | 79 | 241 | 1.0 | 4.0 | 0.00 | 0.00 | 0.00 | 42 | 1014.9 |
| 20260901195004 | 79 | 224 | 1.0 | 4.0 | 0.00 | 0.00 | 0.00 | 42 | 1014.8 |
| 20260901193504 | 80 | 224 | 1.0 | 4.0 | 0.00 | 0.00 | 0.00 | 41 | 1014.8 |
| 20260901193004 | 80 | 226 | 1.0 | 4.0 | 0.00 | 0.00 | 0.00 | 41 | 1014.9 |
| 20260901192503 | 80 | 230 | 2.0 | 4.0 | 0.00 | 0.00 | 0.00 | 40 | 1014.8 |
| 20260901192003 | 80 | 228 | 2.0 | 4.0 | 0.00 | 0.00 | 0.00 | 40 | 1014.8 |
| 20260901191504 | 81 | 225 | 3.0 | 4.0 | 0.00 | 0.00 | 0.00 | 40 | 1014.8 |
| 20260901191003 | 81 | 225 | 2.0 | 4.0 | 0.00 | 0.00 | 0.00 | 39 | 1014.8 |
| 20260901190005 | 82 | 234 | 1.0 | 3.0 | 0.00 | 0.00 | 0.00 | 38 | 1014.7 |
| 20260901185003 | 82 | 181 | 0.0 | 2.0 | 0.00 | 0.00 | 0.00 | 39 | 1014.7 |
| 20260901184504 | 82 | 196 | 0.0 | 3.0 | 0.00 | 0.00 | 0.00 | 39 | 1014.6 |
| 20260901184004 | 83 | 212 | 1.0 | 3.0 | 0.00 | 0.00 | 0.00 | 38 | 1014.5 |
| 20260901183004 | 83 | 201 | 1.0 | 4.0 | 0.00 | 0.00 | 0.00 | 38 | 1014.5 |
| 20260901182503 | 83 | 172 | 1.0 | 3.0 | 0.00 | 0.00 | 0.00 | 38 | 1014.6 |
| 20260901182003 | 83 | 148 | 0.0 | 3.0 | 0.00 | 0.00 | 0.00 | 38 | 1014.4 |
| 20260901181504 | 83 | 99 | 0.0 | 2.0 | 0.00 | 0.00 | 0.00 | 38 | 1014.4 |
| 20260901181004 | 83 | 68 | 0.0 | 2.0 | 0.00 | 0.00 | 0.00 | 38 | 1014.3 |
| 20260901180503 | 84 | 79 | 0.0 | 2.0 | 0.00 | 0.00 | 0.00 | 38 | 1014.3 |
| 20260901180004 | 84 | 90 | 0.0 | 1.0 | 0.00 | 0.00 | 0.00 | 37 | 1014.2 |
| 20260901175503 | 84 | 50 | 0.0 | 2.0 | 0.00 | 0.00 | 0.00 | 37 | 1014.1 |
| 20260901175003 | 84 | 43 | 0.0 | 3.0 | 0.00 | 0.00 | 0.00 | 37 | 1014.1 |
| 20260901174503 | 84 | 45 | 1.0 | 3.0 | 0.00 | 0.00 | 0.00 | 36 | 1014.1 |
| 20260901174004 | 85 | 51 | 0.0 | 3.0 | 0.00 | 0.00 | 0.00 | 36 | 1014.1 |
| 20260901173504 | 85 | 71 | 0.0 | 3.0 | 0.00 | 0.00 | 0.00 | 36 | 1013.9 |
| 20260901173005 | 85 | 90 | 0.0 | 3.0 | 0.00 | 0.00 | 0.00 | 35 | 1014.0 |
| 20260901172504 | 86 | 95 | 0.0 | 2.0 | 0.00 | 0.00 | 0.00 | 34 | 1013.8 |
| 20260901172003 | 86 | 86 | 1.0 | 4.0 | 0.00 | 0.00 | 0.00 | 34 | 1013.8 |